COSMOS 482 DESCENT CRAFT (6073 NORAD) Tracking and Keplerian Element Data

This shows tracking and keplerian element data for the satellite.

Feedback or suggestion? Click here.




ElementValue
Catalog6073
NameCOSMOS 482 DESCENT CRAFT
Epoch Orbit56620
Epoch Day288.08108148
Epoch Year2021
RAAN166.1636
Inclination52.031
Eccentricity0.1244036
Argument of Perigee197.5997
Mean Anonmoly157.7842
Mean Motion13.33249756
Decay Rate0.00032697
L11 06073U 72023E 21288.08108148 .00032697 60088-5 12456-3 0 9996
L22 06073 52.0310 166.1636 1244036 197.5997 157.7842 13.33249756566201

Live tracking and technical data element details for COSMOS 482 DESCENT CRAFT (NORAD 6073). COSMOS 482 DESCENT CRAFT can be tracked NOW for your location showing map with azimuth and elevation plus other details from your city location.

Track the satellite on the map from your city or location and see movement details for azimuth, elevation, latitude, longitude, range, height, and movement on the map or in text.







IsCatalogInMostPopularTable: catalog: 6073, numindb: 531
Update: records affected: 1



GetName: 6073 COSMOS 482 DESCENT CRAFT

Hit Count: updated at: Tue, 19 Oct 2021 07:47:11 GMT